Flag for U.S.A. Weather past 2 weeks in Vevay, Indiana, U.S.A.

Now
65 °F

Passing clouds.


Feels Like: 65 °F
Forecast: 65 / 87 °F
Wind: No wind

Location: Cincinnati / Northern Kentucky International Airport

Current Time: Aug 5, 2015 at 7:33:01 AM

Latest Report: Aug 5, 2015 at 6:52 AM


Visibility: 10 mi

Pressure: 30.03 "Hg

Humidity: 87%

Dew point: 61 °F

Location of VevayLocation

Historic Weather in Vevay — Graph

°F

Vevay temperature yesterday

Maximum temperature yesterday: 84 °F (at 2:52 PM)
Minimum temperature yesterday: 65 °F (at 6:52 AM)
Average temperature yesterday: 75 °F

Past Weeks' High & Low Weather Summary

 TemperatureHumidityPressure
High91 °F (Jul 28, 2:52 PM)100% (Aug 3, 6:52 AM)30.06 "Hg (Aug 3, 6:52 AM)
Low61 °F (Jul 25, 6:52 AM)29% (Jul 30, 3:52 PM)29.72 "Hg (Jul 21, 5:52 AM)
Average76 °F68%29.95 "Hg
* Reported Jul 21 5:52 AM — Aug 5 5:52 AM, Vevay, Weather by CustomWeather, © 2015

Note: Actual official high and low records may vary slightly from our data, if they occured in-between our weather recording intervals... More about our weather records

Advertising

Vevay weather history for previous 24 hours

 ConditionsComfort  
Time TempWeatherWind HumidityBarometerVisibility
5:52 AM
Wed, Aug 5
64 °FPassing clouds.No wind90%30.02 "Hg10 mi
4:52 AM66 °FPassing clouds.No wind87%30.01 "Hg10 mi
3:52 AM69 °FOvercast.No wind79%30.01 "Hg10 mi
2:52 AM70 °FMostly cloudy.3 mph76%30.00 "Hg10 mi
1:52 AM70 °FOvercast.5 mph76%29.99 "Hg10 mi
12:52 AM73 °FMostly cloudy.3 mph64%29.98 "Hg10 mi
11:52 PM
Tue, Aug 4
71 °FMostly cloudy.No wind71%29.99 "Hg10 mi
10:52 PM72 °FMostly cloudy.No wind66%30.01 "Hg10 mi
9:52 PM71 °FMostly cloudy.3 mph76%30.01 "Hg10 mi
8:52 PM72 °FMostly cloudy.5 mph71%29.98 "Hg10 mi
7:52 PM78 °FPartly sunny.5 mph58%29.95 "Hg10 mi
6:52 PM80 °FBroken clouds.8 mph51%29.96 "Hg10 mi
5:52 PM81 °FSunny.12 mph51%29.96 "Hg10 mi
4:52 PM80 °FPartly sunny.12 mph58%29.96 "Hg10 mi
3:52 PM81 °FPartly sunny.9 mph49%29.96 "Hg10 mi
2:52 PM84 °FPartly sunny.12 mph43%29.96 "Hg10 mi
1:52 PM83 °FPartly sunny.9 mph41%29.96 "Hg10 mi
12:52 PM83 °FPartly sunny.12 mph46%29.96 "Hg10 mi
11:52 AM80 °FPartly sunny.10 mph58%29.97 "Hg10 mi
10:52 AM79 °FPartly sunny.9 mph62%29.97 "Hg10 mi
9:52 AM75 °FScattered clouds.No wind76%29.97 "Hg10 mi
8:52 AM73 °FPassing clouds.No wind81%29.96 "Hg8 mi
7:52 AM69 °FScattered clouds.3 mph90%29.95 "Hg7 mi
Weather by CustomWeather, © 2015

See weather overviewHow to use our weather pages